Probability
0 0 0 0 0 0 0 0 0 0 0 0 0 0 0 0 0 0 0 0 0 0 0 0 0 0 0 0 0 0 0 0 0 0 0 0 0 0 0 0 0 0 0 0
0 0 0 0 0 0 0 0 0 0 0 0 0 0 0 0 0 0 0 0 0 0 0 0 0 0 0 0 0 0 0 0 0 0 0 0 0 0 0 0 0 0 0 0
0 0 0 0 0 0 0 0 0 0 0 0 0 0 0 0 0 0 0 0 0 0 0 0 0 0 0 0 0 0 0 0 0 0 0 0 0 0 0 0 0 0 0 0
0 0 0 0 0 0 0 0 0 0 0 0 0 0 0 0 0 0 0 0 0 0 0 0 0 0 0 0 0 0 0 0 0 0 0 0 0 0 0 0 0 0 0 0
0 0 0 0 0 0 0 0 0 0 0 0 0 0 0 0 0 0 0 0 0 0 0 0 0 0 0 0 0 0 0 0 0 0 0 0 0 0 0 0 0 0 0 0
0 0 0 0 0 0 0 0 0 0 0 0 0 0 0 0 0 0 0 0 0 0 0 0 0 0 0 0 0 0 0 0 0 0 0 0 0 0 0 0 0 0 0 0
0 0 0 0 0 0 0 0 0 0 0 0 0 0 0 0 0 0 0 0 0 0 0 0 0 0 0 0 0 0 0 0 0 0 0 0 0 0 0 0 0 0 0 0
0 0 0 0 0 0 0 0 0 0 0 0 0 0 0 0 0 0 0 0 0 0 0 0 0 0 0 0 0 0 0 0 0 0 0 0 0 0 0 0 0 0 0 0
0 0 0 0 0 0 0 0 0 0 0 0 0 0 0 0 0 0 0 0 0 0 0 0 0 0 0 0 0 0 0 0 0 0 0 0 0 0 0 0 0 0 0 0
0 0 0 0 0 0 0 0 0 0 0 0 0 0 0 0 0 0 0 0 0 0 0 0 0 0 0 0 0 0 0 0 0 0 0 0 0 0 0 0 0 0 0 0
0 0 0 0 0 0 0 0 0 0 0 0 0 0 0 0 0 0 0 0 0 0 0 0 0 0 0 0 0 0 0 0 0 0 0 0 0 0 0 0 0 0 0 0
0 0 0 0 0 0 0 0 0 0 0 0 0 0 0 0 0 0 0 0 0 0 0 0 0 0 0 0 0 0 0 0 0 0 0 0 0 0 0 0 0 0 0 0
0 0 0 0 0 0 0 0 0 0 0 0 0 0 0 0 0 0 0 0 0 0 0 0 0 0 0 0 0 0 0 0 0 0 0 0 0 0 0 0 0 0 0 0
0 0 0 0 0 0 0 0 0 0 0 0 0 0 0 0 0 0 0 0 0 0 0 0 0 0 0 0 0 0 0 0 0 0 0 0 0 0 0 0 0 0 0 0
0 0 0 0 0 0 0 0 0 0 0 0 0 0 0 0 0 0 0 0 0 0 0 0 0 0 0 0 0 0 0 0 0 0 0 0 0 0 0 0 0 0 0 0
0 0 0 0 0 0 0 0 0 0 0 0 0 0 0 0 0 0 0 0 0 0 0 0 0 0 0 0 0 0 0 0 0 0 0 0 0 0 0 0 0 0 0 0
0 0 0 0 0 0 0 0 0 0 0 0 0 0 0 0 0 0 0 0 0 0 0 0 0 0 0 0 0 0 0 0 0 0 0 0 0 0 0 0 0 0 0 0
0 0 0 0 0 0 0 0 0 0 0 0 0 0 0 0 0 0 0 0 0 0 0 0 0 0 0 0 0 0 0 0 0 0 0 0 0 0 0 0 0 0 0 0
0 0 0 0 0 0 0 0 0 0 0 0 0 0 0 0 0 0 0 0 0 0 0 0 0 0 0 0 0 0 0 0 0 0 0 0 0 0 0 0 0 0 0 0
0 0 0 0 0 0 0 0 0 0 0 0 0 0 0 0 0 0 0 0 0 0 0 0 0 0 0 0 0 0 0 0 0 0 0 0 0 0 0 0 0 0 0 0
0 0 0 0 0 0 0 0 0 0 0 0 0 0 0 0 0 0 0 0 0 0 0 0 0 0 0 0 0 0 0 0 0 0 0 0 0 0 0 0 0 0 0 0
0 0 0 0 0 0 0 0 0 0 0 0 0 0 0 0 0 0 0 0 0 0 0 0 0 0 0 0 0 0 0 0 0 0 0 0 0 0 0 0 0 0 0 0
0 0 0 0 0 0 0 0 0 0 0 0 0 0 0 0 0 0 0 0 0 0 0 0 0 0 0 0 0 0 0 0 0 0 0 0 0 0 0 0 0 0 0 0
0 0 0 0 0 0 0 0 0 0 0 0 0 0 0 0 0 0 0 0 0 0 0 0 0 0 0 0 0 0 0 0 0 0 0 0 0 0 0 0 0 0 0 0
0 0 0 0 0 0 0 0 0 0 0 0 0 0 0 0 0 0 0 0 0 0 0 0 0 0 0 0 0 0 0 0 0 0 0 0 0 0 0 0 0 0 0 0
0 0 0 0 0 0 0 0 0 0 0 0 0 0 0 0 0 0 0 0 0 0 0 0 0 0 0 0 0 0 0 0 0 0 0 0 0 0 0 0 0 0 0 0
0 0 0 0 0 0 0 0 0 0 0 0 0 0 0 0 0 0 0 0 0 0 0 0 0 0 0 0 0 0 0 0 0 0 0 0 0 0 0 0 0 0 0 0
Height
5538 5544 5549 5554 5559 5564 5568 5574 5580 5586 5591 5596 5600 5604 5608 5612 5617 5621 5625 5629 5632 5636 5639 5642 5644 5647 5649 5651 5653 5655 5656 5657 5658 5658 5658 5658 5657 5656 5654 5653 5652 5650 5648 5645
5532 5537 5541 5546 5551 5556 5561 5566 5571 5577 5582 5587 5591 5595 5599 5604 5608 5612 5616 5619 5623 5626 5629 5632 5635 5637 5639 5641 5642 5644 5645 5646 5647 5647 5647 5646 5645 5644 5643 5642 5640 5638 5636 5633
5526 5531 5534 5539 5544 5549 5554 5559 5564 5569 5576 5579 5583 5586 5590 5594 5598 5602 5606 5610 5613 5617 5620 5622 5625 5627 5629 5630 5632 5633 5634 5635 5636 5636 5636 5635 5634 5633 5632 5630 5629 5627 5624 5621
5520 5525 5528 5536 5538 5542 5547 5552 5556 5561 5566 5570 5574 5578 5581 5585 5589 5593 5596 5600 5603 5607 5609 5612 5614 5616 5618 5620 5621 5622 5623 5624 5624 5624 5624 5623 5622 5621 5620 5618 5617 5615 5612 5609
5514 5517 5522 5528 5532 5536 5540 5545 5549 5553 5557 5561 5565 5569 5573 5576 5580 5584 5587 5590 5594 5597 5599 5602 5604 5606 5608 5609 5611 5612 5612 5613 5613 5613 5612 5611 5611 5609 5608 5607 5605 5603 5600 5597
5508 5512 5516 5523 5526 5529 5534 5538 5542 5546 5550 5553 5557 5562 5566 5569 5572 5575 5578 5581 5584 5586 5589 5591 5593 5595 5597 5598 5600 5601 5601 5601 5601 5601 5600 5600 5599 5598 5596 5595 5593 5591 5588 5585
5502 5506 5510 5516 5519 5523 5529 5533 5535 5538 5542 5545 5549 5554 5557 5560 5563 5566 5568 5571 5574 5576 5578 5580 5582 5584 5586 5587 5588 5589 5590 5590 5590 5589 5589 5588 5587 5586 5585 5583 5581 5579 5576 5573
5497 5501 5507 5509 5513 5517 5521 5525 5528 5531 5534 5538 5541 5545 5548 5551 5554 5556 5559 5561 5564 5566 5568 5570 5571 5573 5575 5576 5577 5578 5578 5578 5578 5578 5577 5577 5576 5574 5573 5571 5569 5567 5564 5561
5492 5497 5500 5502 5506 5509 5513 5517 5521 5524 5527 5531 5534 5537 5540 5542 5545 5547 5550 5552 5554 5556 5558 5559 5561 5562 5564 5565 5566 5566 5567 5567 5566 5566 5566 5565 5564 5563 5561 5559 5557 5555 5552 5550
5486 5489 5493 5496 5499 5502 5506 5510 5513 5516 5519 5523 5525 5528 5531 5534 5536 5538 5541 5543 5544 5546 5547 5549 5550 5551 5553 5554 5555 5555 5555 5555 5555 5555 5554 5553 5552 5551 5549 5547 5545 5543 5541 5539
5480 5483 5486 5489 5492 5496 5499 5502 5506 5509 5512 5514 5517 5520 5522 5525 5527 5529 5531 5533 5534 5536 5537 5539 5540 5541 5542 5543 5543 5544 5544 5544 5544 5543 5542 5542 5540 5539 5537 5536 5534 5532 5530 5527
5475 5477 5480 5483 5485 5488 5492 5495 5498 5501 5504 5507 5509 5511 5513 5516 5518 5519 5521 5523 5524 5526 5527 5528 5529 5530 5531 5531 5532 5532 5532 5532 5532 5532 5531 5530 5529 5528 5525 5524 5522 5520 5518 5516
5469 5471 5473 5476 5479 5481 5484 5488 5491 5493 5496 5499 5501 5503 5505 5507 5508 5510 5512 5513 5514 5515 5516 5517 5518 5519 5520 5520 5521 5521 5521 5521 5520 5520 5520 5519 5518 5517 5515 5513 5511 5509 5507 5505
5463 5465 5467 5469 5472 5474 5477 5480 5483 5486 5488 5490 5492 5494 5496 5498 5500 5501 5502 5503 5504 5505 5506 5507 5508 5508 5509 5509 5509 5509 5509 5509 5509 5509 5508 5508 5507 5506 5504 5503 5501 5499 5497 5495
5457 5459 5461 5463 5465 5467 5469 5472 5475 5478 5480 5482 5484 5486 5488 5490 5491 5492 5493 5494 5494 5495 5496 5496 5497 5498 5498 5498 5498 5498 5498 5498 5498 5497 5497 5496 5495 5494 5493 5492 5490 5489 5487 5485
5453 5454 5455 5457 5459 5461 5463 5465 5467 5470 5472 5474 5476 5478 5479 5481 5482 5483 5483 5484 5485 5485 5486 5486 5487 5487 5487 5487 5487 5487 5487 5487 5486 5486 5485 5485 5484 5483 5482 5481 5480 5478 5477 5475
5448 5449 5450 5451 5453 5454 5456 5458 5460 5462 5464 5466 5467 5469 5470 5471 5472 5473 5474 5474 5475 5475 5476 5476 5477 5477 5477 5476 5476 5476 5476 5476 5475 5474 5474 5473 5473 5472 5471 5470 5469 5468 5466 5465
5443 5444 5445 5446 5447 5448 5450 5451 5452 5454 5456 5457 5459 5460 5461 5462 5463 5464 5464 5464 5465 5466 5466 5466 5466 5466 5466 5466 5466 5465 5465 5464 5464 5463 5463 5463 5462 5461 5460 5459 5458 5457 5456 5455
5438 5439 5439 5440 5441 5442 5443 5444 5445 5447 5448 5449 5450 5451 5452 5453 5454 5454 5455 5455 5456 5456 5456 5456 5456 5456 5456 5456 5456 5455 5455 5454 5454 5453 5453 5452 5452 5451 5450 5450 5449 5448 5447 5446
5434 5434 5435 5435 5436 5436 5437 5438 5439 5440 5441 5442 5443 5444 5444 5445 5445 5446 5446 5447 5447 5447 5448 5448 5447 5447 5447 5447 5446 5446 5445 5445 5444 5444 5443 5443 5442 5442 5441 5440 5440 5439 5439 5438
5429 5429 5430 5430 5431 5431 5432 5432 5433 5433 5434 5435 5436 5436 5437 5437 5438 5438 5439 5439 5439 5439 5440 5440 5439 5439 5439 5438 5438 5437 5437 5436 5435 5434 5434 5433 5433 5433 5433 5432 5432 5432 5431 5431
5424 5424 5425 5425 5425 5426 5426 5426 5427 5427 5428 5429 5429 5430 5430 5430 5431 5431 5431 5432 5432 5432 5432 5432 5431 5431 5430 5430 5430 5429 5428 5427 5427 5426 5426 5425 5425 5425 5425 5425 5425 5425 5426 5426
5419 5419 5419 5419 5420 5420 5420 5421 5421 5422 5422 5423 5423 5423 5424 5424 5424 5425 5425 5425 5425 5425 5426 5425 5424 5424 5423 5423 5422 5422 5421 5420 5419 5419 5419 5419 5419 5419 5419 5419 5420 5420 5421 5421
5414 5414 5414 5414 5414 5415 5415 5415 5416 5416 5417 5417 5417 5417 5418 5418 5418 5418 5418 5419 5419 5419 5419 5419 5418 5418 5417 5417 5416 5415 5415 5414 5414 5414 5413 5413 5413 5414 5414 5415 5415 5416 5416 5417
5409 5409 5409 5409 5409 5409 5410 5410 5410 5411 5411 5412 5412 5412 5412 5412 5413 5413 5413 5413 5413 5413 5413 5413 5413 5412 5412 5411 5411 5410 5410 5410 5409 5409 5409 5409 5409 5409 5410 5410 5411 5412 5413 5413
5404 5404 5404 5404 5404 5404 5405 5405 5406 5406 5406 5407 5407 5407 5407 5407 5408 5408 5408 5408 5408 5408 5408 5408 5408 5407 5407 5407 5407 5406 5406 5405 5405 5405 5405 5405 5406 5406 5407 5407 5408 5409 5410 5411
5399 5399 5399 5399 5399 5400 5400 5401 5401 5401 5402 5402 5402 5402 5402 5402 5403 5403 5403 5403 5403 5403 5403 5403 5403 5403 5403 5403 5403 5403 5402 5402 5402 5402 5403 5403 5404 5404 5405 5405 5406 5407 5408 5409
Wind_Speed
37 36 36 37 39 41 43 44 44 42 42 41 40 39 38 38 39 39 39 39 39 40 41 41 41 42 42 42 43 43 44 44 44 45 45 45 45 45 45 45 46 46 47 48
35 35 35 35 37 39 41 42 42 42 42 41 40 40 40 39 40 40 40 40 40 41 41 42 42 42 43 43 43 44 44 44 45 45 46 46 46 46 46 46 47 47 48 49
34 35 35 35 36 37 39 40 40 40 40 41 41 40 40 40 41 41 41 41 41 41 41 41 41 42 43 43 44 45 45 45 46 46 46 47 47 47 47 47 48 48 49 49
30 33 35 35 34 36 37 37 38 39 39 40 40 40 40 40 39 40 40 40 40 40 40 41 41 42 42 43 44 44 45 45 45 46 47 47 47 47 48 48 48 48 49 49
29 31 33 33 33 33 35 36 36 37 37 38 39 39 39 39 38 38 39 39 39 40 40 41 41 42 43 43 43 43 44 45 45 46 47 47 47 48 47 47 48 49 49 50
29 30 31 32 32 31 32 34 34 34 35 37 37 37 36 37 37 37 38 38 39 39 40 41 42 42 42 43 44 44 45 45 45 46 46 46 46 46 47 47 48 49 50 50
29 30 31 31 31 31 31 31 32 33 33 35 36 35 36 36 37 38 38 38 39 40 40 41 42 42 43 43 44 45 45 45 45 44 44 44 44 45 46 47 48 49 49 49
28 29 30 31 31 31 30 30 30 31 32 33 33 33 34 35 36 37 37 37 38 39 39 40 41 42 43 44 44 44 45 45 45 44 44 45 45 46 46 47 48 48 47 46
28 28 28 30 32 32 31 30 30 31 31 32 33 34 34 35 36 37 37 37 38 39 39 40 40 41 42 43 43 44 45 45 45 45 45 45 45 45 46 46 46 46 45 45
27 28 28 29 30 31 32 32 31 31 30 31 32 33 35 35 35 36 37 38 38 39 39 40 41 41 42 42 43 43 43 43 44 44 44 44 45 45 45 45 45 44 44 43
27 28 28 29 31 32 32 32 32 32 31 31 31 32 34 35 36 36 37 37 38 39 39 40 40 41 41 42 43 43 43 43 43 43 43 43 44 44 44 44 43 43 42 42
24 26 27 28 29 30 31 31 32 33 33 32 32 32 33 34 35 36 36 37 38 38 39 40 41 41 42 42 42 42 43 43 43 43 43 43 43 43 43 42 42 42 41 41
21 23 25 27 28 29 30 30 31 32 32 32 32 31 32 32 33 34 35 36 37 38 39 40 40 41 41 41 42 42 41 41 41 41 41 41 41 41 41 42 42 41 40 40
20 21 23 25 27 28 29 29 29 30 30 31 31 31 32 32 33 33 34 35 36 37 38 39 39 40 40 40 40 40 40 40 40 39 39 39 40 40 40 40 40 40 39 39
17 19 21 23 24 25 26 27 28 28 29 29 30 31 31 32 33 33 33 34 34 35 36 37 37 38 39 39 39 39 39 39 39 39 39 39 39 39 39 38 38 37 37 37
15 16 18 20 22 23 25 26 27 28 28 29 29 30 31 32 33 33 34 34 34 35 35 36 36 37 37 38 38 38 38 38 39 40 40 40 39 39 38 37 36 36 36 36
16 16 17 19 20 22 23 25 26 27 28 29 29 30 31 32 33 34 34 34 35 35 35 35 36 36 36 36 37 36 37 38 38 38 38 38 37 37 37 37 36 35 35 34
16 17 17 18 19 20 21 23 25 26 27 28 29 30 30 31 31 32 33 33 34 34 34 34 34 35 35 34 34 34 34 35 35 35 35 35 34 35 34 34 33 33 32 31
15 16 17 17 18 19 20 21 23 24 25 26 27 28 29 29 29 30 30 30 31 31 31 31 32 31 32 32 32 32 33 33 32 32 32 32 32 32 31 31 31 30 29 28
15 15 16 16 17 18 19 20 21 22 23 23 24 24 25 26 26 27 27 27 28 28 28 28 28 28 29 29 29 29 30 30 30 31 31 30 30 29 29 29 28 27 25 24
15 15 16 16 17 17 18 19 19 20 21 21 21 22 23 23 24 24 25 25 25 25 25 26 27 27 28 28 28 27 27 28 28 28 28 27 27 27 26 25 23 22 21 20
15 16 16 16 17 17 18 18 18 19 19 19 20 20 21 22 22 22 22 22 23 23 23 24 25 25 25 25 26 26 26 26 25 24 23 23 23 22 21 20 19 17 16 15
17 16 16 17 17 17 18 18 18 18 18 18 19 19 19 19 19 19 20 20 20 20 20 21 22 22 22 22 22 22 22 21 19 18 18 18 17 17 16 15 14 14 13 13
16 16 16 16 17 17 17 17 17 17 17 17 17 17 17 16 16 17 17 18 18 18 18 19 19 19 19 19 18 17 16 15 15 14 14 14 14 13 13 12 12 12 12 11
15 15 15 15 15 16 16 16 15 15 15 15 15 15 15 15 15 15 15 16 16 16 16 17 17 16 16 15 14 13 13 13 13 12 11 10 10 10 10 10 10 9 9 9
14 14 14 14 14 14 13 13 13 14 14 14 14 14 14 14 14 14 15 15 15 15 15 15 14 13 13 12 12 12 11 11 10 9 8 7 7 7 7 7 7 7 7 7
14 13 13 13 13 12 12 12 13 13 14 14 14 14 14 14 14 14 14 14 14 14 13 13 12 12 11 11 10 9 9 8 7 7 6 6 6 6 5 5 6 5 5 6
Wind_Direction
227 228 228 229 229 230 232 234 236 237 239 240 240 240 240 240 240 240 240 241 241 241 241 242 244 246 248 251 253 255 258 260 262 265 267 270 272 273 275 277 279 280 283 285
228 228 229 229 229 230 232 233 235 236 236 238 240 241 241 241 241 241 241 242 243 244 245 246 246 247 249 251 253 255 258 260 263 265 268 270 272 273 275 277 279 281 283 285
229 229 230 230 229 230 233 234 236 237 237 238 240 241 241 241 242 242 242 243 245 246 246 247 248 249 250 252 254 256 258 261 263 265 268 271 272 274 275 277 279 281 283 285
229 229 230 231 231 232 233 235 236 237 236 238 239 240 242 243 243 243 242 243 244 245 247 248 249 249 251 252 254 256 259 262 264 267 269 270 272 273 275 277 279 281 283 285
228 230 231 231 231 233 234 235 236 237 236 237 238 239 240 241 242 242 243 243 245 246 247 249 250 251 252 253 255 258 260 262 265 267 269 271 272 274 276 277 279 282 284 285
230 231 231 231 231 232 234 236 236 237 237 237 238 239 240 241 242 243 243 243 245 246 248 250 251 252 253 254 256 258 261 264 266 268 270 271 272 274 276 278 280 282 284 285
231 233 232 231 232 232 235 236 236 237 237 236 238 240 240 242 243 244 245 246 247 248 250 251 252 253 255 257 259 260 262 265 268 269 270 271 273 275 277 279 281 283 284 286
232 232 233 233 234 236 237 236 237 238 238 238 239 240 241 242 243 244 246 248 249 250 252 253 254 254 256 258 260 262 264 266 267 268 270 272 274 276 278 280 282 283 284 285
234 234 234 236 236 236 237 238 238 239 239 240 240 242 243 243 244 245 247 249 251 252 253 254 255 256 257 259 261 263 265 267 268 269 271 273 275 277 279 280 282 282 283 284
239 237 236 235 234 235 237 239 239 240 240 241 241 241 242 243 245 248 250 251 252 253 255 256 257 257 258 260 262 264 266 268 269 271 273 274 276 278 279 280 281 282 283 284
242 242 240 238 237 237 238 239 239 241 242 244 244 244 244 245 247 249 251 252 254 255 256 257 258 260 261 263 264 265 267 268 269 271 273 275 277 278 279 280 281 282 282 283
242 243 242 240 238 238 238 239 240 241 244 246 247 248 248 248 249 250 252 253 255 256 257 259 260 262 263 264 265 267 268 268 269 271 272 274 276 278 279 280 282 283 283 284
241 242 242 240 240 239 239 240 241 242 244 246 247 249 250 250 251 253 255 256 258 259 260 260 261 263 264 264 265 267 267 268 269 271 272 274 276 277 279 281 283 283 283 284
245 243 241 240 241 241 241 241 243 243 245 246 247 249 251 251 252 254 256 258 259 260 261 261 262 263 264 265 266 267 267 268 269 270 272 274 276 278 279 280 281 282 282 283
249 246 242 241 241 242 243 243 243 244 246 247 248 250 251 252 254 255 257 258 260 260 261 261 262 262 264 265 267 267 268 269 270 271 273 275 276 278 279 280 281 281 281 282
247 245 242 241 242 243 244 245 245 245 246 247 249 250 251 252 254 256 257 259 260 261 262 262 263 264 265 266 267 267 268 269 271 273 274 275 276 277 278 279 280 281 281 281
251 248 246 245 244 244 244 244 246 247 249 250 251 253 254 255 257 258 259 260 261 262 263 264 265 266 267 268 268 268 270 271 273 274 275 275 275 276 277 278 279 281 281 281
256 254 253 251 248 247 247 247 248 249 251 252 254 255 256 258 259 260 261 262 263 263 264 266 266 267 268 269 270 270 271 273 273 274 273 274 275 277 277 278 279 281 280 279
260 258 257 255 254 253 254 253 252 252 252 253 255 256 257 258 260 261 262 263 263 263 265 267 267 268 269 270 272 273 273 274 274 274 274 275 276 276 277 278 280 282 280 278
263 262 261 259 258 258 259 258 256 256 255 256 257 257 258 259 261 262 263 263 263 264 265 267 269 270 270 271 273 275 275 275 275 275 274 274 275 276 278 279 280 280 278 276
265 264 262 261 260 260 261 260 259 258 258 258 258 259 259 260 262 263 263 263 264 265 267 269 270 271 272 272 274 276 277 277 277 276 274 273 273 275 276 277 278 278 276 272
268 267 265 264 263 262 263 261 259 258 257 258 260 262 262 262 263 262 262 263 264 266 269 272 273 274 274 275 275 276 277 277 277 275 273 272 272 272 273 273 272 272 270 266
271 270 268 265 264 264 263 261 259 259 259 260 262 264 265 264 263 260 260 262 265 267 271 274 275 276 276 276 277 276 276 276 274 272 272 272 271 270 268 266 265 265 265 264
272 272 270 267 264 263 261 260 260 260 260 261 263 264 264 262 261 261 261 263 266 269 273 276 277 277 277 277 278 276 274 271 270 270 272 273 271 267 263 261 261 263 262 260
274 273 270 267 264 263 261 260 258 257 258 261 264 264 262 261 261 262 262 264 267 270 272 275 277 278 277 276 275 275 272 269 270 271 271 268 264 259 255 255 256 255 254 250
275 273 270 267 264 263 260 257 256 257 259 261 264 264 263 262 263 264 264 266 268 270 271 273 276 276 274 274 275 276 275 272 268 265 261 257 251 246 246 246 243 242 243 239
274 273 269 265 262 260 259 259 259 261 262 263 265 265 263 263 264 265 266 266 268 270 270 271 271 270 269 271 271 272 271 264 259 255 249 244 239 235 233 231 233 234 229 216